Regional Weather Roundup
Issued by NWS

Home | Current Version | Previous Version | Graphics & Text | Print | Product List | Glossary On
Versions: 1 2 3 4 5 6 7 8 9 10 11 12 13 14 15 16 17 18 19 20 21 22 23 24 25 26 27 28 29 30 31 32 33 34 35 36 37 38 39 40 41 42 43 44 45 46 47 48 49 50
014
ASUS44 KMEG 260210
RWRTN
TENNESSEE HOURLY STATE WEATHER ROUNDUP
NATIONAL WEATHER SERVICE MEMPHIS TN
900 PM CDT SUN SEP 25 2016

TNZ002-004-019-021-049-052-054-088>092-260300-
WEST TENNESSEE

CITY           SKY/WX    TMP DP  RH WIND       PRES   REMARKS
MEMPHIS INTL   PTCLDY    82  66  58 NW6       30.01R
NWS MEMPHIS      N/A     79 N/A N/A MISG        N/A
JACKSON          N/A    N/A N/A N/A MISG      30.02R
DYERSBURG      CLEAR    N/A N/A N/A MISG      30.01R
UNION CITY     CLEAR     75  72  88 CALM      30.01R
PARIS          CLEAR     72  66  83 CALM      30.04R
HUNTINGDON       N/A     73  70  88 CALM      30.01R
LEXINGTON      CLEAR     73  70  88 CALM      30.03R
$$

TNZ008-025-027-028-033-062-065-066-260300-
NORTH MIDDLE TENNESSEE

CITY           SKY/WX    TMP DP  RH WIND       PRES   REMARKS
NASHVILLE      CLEAR     78  64  61 CALM      30.04R
PORTLAND       CLEAR     72  68  88 CALM      30.05R
CLARKSVILLE    CLEAR     74  65  73 CALM      30.03R
SMYRNA         CLEAR     72  65  78 SE5       30.04R
COOKEVILLE     CLEAR     70  68  94 CALM      30.06R
GALLATIN       CLEAR     72  68  88 CALM      30.06R
CROSSVILLE     CLEAR     69  65  86 CALM      30.12R
$$

TNZ061-075-076-078-094-096-097-260300-
SOUTH MIDDLE TENNESSEE

CITY           SKY/WX    TMP DP  RH WIND       PRES   REMARKS
FAYETTEVILLE   CLOUDY    79  64  61 N6        30.04R
TULLAHOMA      CLEAR     72  64  78 CALM      30.07R
WINCHESTER     CLEAR     70  66  88 E3        30.05S
MCMINNVILLE    CLEAR     73  66  78 NE6       30.06S
COLUMBIA       CLEAR    N/A N/A N/A CALM      30.03R
SHELBYVILLE    CLEAR     73  68  83 CALM      30.05R
$$

TNZ017-018-042-046-047-260300-
NORTHEAST TENNESSEE

CITY           SKY/WX    TMP DP  RH WIND       PRES   REMARKS
TRI CITIES     PTCLDY    71  63  75 CALM      30.10R
ELIZABETHTON     N/A     68  61  77 CALM      30.12R
$$

TNZ012-013-036-069-073-074-260300-
CENTRAL EAST TENNESSEE

CITY           SKY/WX    TMP DP  RH WIND       PRES   REMARKS
KNOXVILLE      CLEAR     79  63  57 NE5       30.05R
OAK RIDGE      CLEAR     76  66  71 CALM      30.07R
DOWNTOWN KNOXV CLEAR     73  68  83 CALM      30.05S
GATLINBURG     CLEAR     73  63  68 CALM      30.06R
MORRISTOWN     CLEAR     75  63  64 CALM      30.07S
JACKSBORO      CLEAR     72  66  83 CALM      30.10S
$$

TNZ083-085-099-260300-
SOUTHEAST TENNESSEE

CITY           SKY/WX    TMP DP  RH WIND       PRES   REMARKS
CHATTANOOGA    PTCLDY    86  62  44 NE5       30.04R
$$

SKY/WX REPORTED AS FAIR MEANS FEW OR NO CLOUDS BELOW
12 THOUSAND FEET.





USA.gov is the U.S. government's official web portal to all federal, state and local government web resources and services.